Starlink 35573

operational
NORAD ID: 66116 Int'l Des: 2025-237 Owner: SPXS Country: US Constellation: starlink
LEOCIRCULAR

Über Starlink 35573

Beschreibung wird geladen...

Live-Position

3D-Globus wird geladen...

Nächste Überflüge

Höhenverlauf

Altitude vs Time

uPlot chart will show altitude changes over time

Zweizeiliger Elementsatz

1 66116U 25237C 25349.66225969 .00030378 00000-0 76602-3 0 9992
2 66116 53.1599 73.6082 0000778 31.3522 328.7529 15.39635530 9698
Epoch: 15. Dez. 2025 • Age: 22 hours

Aktueller Status

Höhe 450.7 km
Geschwindigkeit 7.65 km/s
Subsatellitenpunkt 40.24°N, 89.11°W
Startdatum 22. Okt. 2025
Alter 0.1 years
Typ internet

Technische Details

Klassifizierung Payload
Masse 575.00 kg
Trockenmasse 530.00 kg
Gesamtmasse 575.00 kg
Länge 0.30 m
Durchmesser 4.10 m
Spannweite 29.00 m
Form Box + pan
Hersteller SPXS
Bus-Typ Starlink V2MO
Phasenstatus In Orbit
Besitzer/Staat SPXS/US

Große Konstellationen

Loading constellations...